When you browse on this site, cookies collect data to enhance your experience and personalize the content and advertising you see.
Visit our Privacy Policy to learn more. By continuing to use the site, you agree to this use of cookies and data.
  • In Sweden
  • List of Countries
  • For 7 days
  • Water Temperature
  • Satellite Maps
  • Weather Map
  • Weather Widgets
  • user-avatar
    Login

    Hourly Weather Santa Bárbara

    Today, 16 January, Wednesday

    Time Temperature Precipitation Wind Pressure Humidity
    00:00 +18°C° 0 mm 0 mps 725 mmHg 98%
    01:00 +18°C° 0 mm 0 mps 724 mmHg 98%
    02:00 +18°C° 0 mm 0 mps 724 mmHg 98%
    03:00 +18°C° 0 mm 0 mps 724 mmHg 98%
    04:00 +18°C° 0 mm 0 mps 724 mmHg 98%
    05:00 +17°C° 0 mm 0 mps 724 mmHg 98%
    06:00 +17°C° 0 mm 0 mps 725 mmHg 98%
    07:00 +19°C° 0 mm 0 mps 725 mmHg 90%
    08:00 +21°C° 0 mm 0 mps 726 mmHg 82%
    09:00 +23°C° 0 mm 0 mps 726 mmHg 74%
    10:00 +26°C° 0 mm 1 mps 726 mmHg 71%
    11:00 +26°C° 0 mm 1 mps 726 mmHg 67%
    12:00 +27°C° 0 mm 1 mps 725 mmHg 63%
    13:00 +27°C° 0.2 mm 1 mps 725 mmHg 67%
    14:00 +26°C° 0.2 mm 1 mps 724 mmHg 71%
    15:00 +26°C° 0.2 mm 1 mps 724 mmHg 75%
    16:00 +24°C° 0.3 mm 1 mps 724 mmHg 82%
    17:00 +23°C° 0.3 mm 1 mps 724 mmHg 89%
    18:00 +22°C° 0.3 mm 1 mps 724 mmHg 96%
    19:00 +22°C° 0.1 mm 1 mps 724 mmHg 97%
    20:00 +19°C° 0.1 mm 0 mps 724 mmHg 97%
    21:00 +19°C° 0.1 mm 0 mps 725 mmHg 97%
    22:00 +19°C° 0.1 mm 0 mps 725 mmHg 97%
    23:00 +19°C° 0.1 mm 0 mps 725 mmHg 97%

    Tomorrow, 17 January, Thursday

    Time Temperature Precipitation Wind Pressure Humidity
    00:00 +19°C° 0.1 mm 0 mps 725 mmHg 98%
    01:00 +19°C° 0.1 mm 0 mps 724 mmHg 98%
    02:00 +19°C° 0.1 mm 0 mps 724 mmHg 98%
    03:00 +19°C° 0.1 mm 0 mps 724 mmHg 98%
    04:00 +19°C° 0.4 mm 0 mps 724 mmHg 98%
    05:00 +19°C° 0.4 mm 0 mps 724 mmHg 98%
    06:00 +19°C° 0.4 mm 0 mps 724 mmHg 98%
    07:00 +19°C° 0.6 mm 0 mps 725 mmHg 97%
    08:00 +19°C° 0.6 mm 0 mps 725 mmHg 96%
    09:00 +22°C° 0.6 mm 1 mps 725 mmHg 96%
    10:00 +22°C° 0.4 mm 1 mps 725 mmHg 95%
    11:00 +22°C° 0.4 mm 1 mps 725 mmHg 94%
    12:00 +22°C° 0.4 mm 1 mps 724 mmHg 94%
    13:00 +22°C° 0.2 mm 1 mps 724 mmHg 94%
    14:00 +22°C° 0.2 mm 1 mps 723 mmHg 94%
    15:00 +22°C° 0.2 mm 1 mps 722 mmHg 94%
    16:00 +22°C° 0.1 mm 1 mps 723 mmHg 95%
    17:00 +22°C° 0.1 mm 1 mps 723 mmHg 97%
    18:00 +21°C° 0.1 mm 1 mps 723 mmHg 98%
    19:00 +21°C° 0.4 mm 1 mps 724 mmHg 98%
    20:00 +21°C° 0.4 mm 1 mps 724 mmHg 98%
    21:00 +19°C° 0.4 mm 0 mps 724 mmHg 98%
    22:00 +19°C° 0.3 mm 0 mps 724 mmHg 97%
    23:00 +19°C° 0.3 mm 0 mps 724 mmHg 97%

    Day after tomorrow, 18 January, Friday

    Time Temperature Precipitation Wind Pressure Humidity
    00:00 +19°C° 0.3 mm 0 mps 724 mmHg 97%
    01:00 +19°C° 0.1 mm 0 mps 723 mmHg 97%
    02:00 +19°C° 0.1 mm 0 mps 723 mmHg 97%
    03:00 +19°C° 0.1 mm 0 mps 723 mmHg 97%
    04:00 +19°C° 0 mm 0 mps 723 mmHg 97%
    05:00 +19°C° 0 mm 0 mps 723 mmHg 97%
    06:00 +19°C° 0 mm 0 mps 723 mmHg 97%
    07:00 +20°C° 0 mm 0 mps 724 mmHg 93%
    08:00 +21°C° 0 mm 0 mps 724 mmHg 90%
    09:00 +22°C° 0 mm 0 mps 725 mmHg 86%
    10:00 +23°C° 0 mm 0 mps 725 mmHg 81%
    11:00 +26°C° 0 mm 1 mps 724 mmHg 76%
    12:00 +27°C° 0 mm 1 mps 724 mmHg 71%
    13:00 +27°C° 0.1 mm 1 mps 723 mmHg 71%
    14:00 +27°C° 0.1 mm 1 mps 722 mmHg 71%
    15:00 +27°C° 0.1 mm 1 mps 721 mmHg 72%
    16:00 +25°C° 0.1 mm 1 mps 721 mmHg 79%
    17:00 +22°C° 0.1 mm 0 mps 721 mmHg 86%
    18:00 +20°C° 0.1 mm 0 mps 721 mmHg 93%
    19:00 +20°C° 0 mm 0 mps 722 mmHg 94%
    20:00 +20°C° 0 mm 0 mps 722 mmHg 96%
    21:00 +20°C° 0 mm 0 mps 723 mmHg 97%
    22:00 +20°C° 0 mm 0 mps 723 mmHg 97%
    23:00 +20°C° 0 mm 0 mps 723 mmHg 97%

    19 January, Saturday

    Time Temperature Precipitation Wind Pressure Humidity
    00:00 +20°C° 0 mm 0 mps 722 mmHg 98%
    01:00 +19°C° 0 mm 0 mps 722 mmHg 97%
    02:00 +19°C° 0 mm 0 mps 722 mmHg 97%
    03:00 +19°C° 0 mm 0 mps 721 mmHg 97%
    04:00 +19°C° 0 mm 0 mps 721 mmHg 97%
    05:00 +19°C° 0 mm 0 mps 721 mmHg 97%
    06:00 +18°C° 0 mm 0 mps 722 mmHg 97%
    07:00 +21°C° 0 mm 0 mps 722 mmHg 88%
    08:00 +23°C° 0 mm 0 mps 723 mmHg 78%
    09:00 +25°C° 0 mm 0 mps 723 mmHg 69%
    10:00 +29°C° 0 mm 1 mps 722 mmHg 59%
    11:00 +31°C° 0 mm 1 mps 722 mmHg 48%
    12:00 +33°C° 0 mm 1 mps 721 mmHg 38%
    13:00 +34°C° 0 mm 1 mps 721 mmHg 36%
    14:00 +34°C° 0 mm 1 mps 720 mmHg 34%
    15:00 +35°C° 0 mm 2 mps 719 mmHg 33%
    16:00 +31°C° 0 mm 1 mps 719 mmHg 44%
    17:00 +28°C° 0 mm 1 mps 719 mmHg 56%
    18:00 +26°C° 0 mm 1 mps 719 mmHg 68%
    19:00 +24°C° 0 mm 1 mps 720 mmHg 77%
    20:00 +21°C° 0 mm 0 mps 721 mmHg 85%
    21:00 +20°C° 0 mm 0 mps 721 mmHg 94%
    22:00 +20°C° 0 mm 0 mps 721 mmHg 95%
    23:00 +20°C° 0 mm 0 mps 721 mmHg 95%

    20 January, Sunday

    Time Temperature Precipitation Wind Pressure Humidity
    00:00 +20°C° 0 mm 0 mps 722 mmHg 95%
    01:00 +20°C° 0 mm 0 mps 721 mmHg 95%
    02:00 +20°C° 0 mm 0 mps 721 mmHg 95%
    03:00 +20°C° 0 mm 0 mps 721 mmHg 95%
    04:00 +20°C° 0 mm 0 mps 722 mmHg 95%
    05:00 +20°C° 0 mm 0 mps 723 mmHg 94%
    06:00 +20°C° 0 mm 0 mps 723 mmHg 94%
    07:00 +23°C° 0.2 mm 1 mps 724 mmHg 91%
    08:00 +24°C° 0.2 mm 1 mps 724 mmHg 88%
    09:00 +24°C° 0.2 mm 1 mps 725 mmHg 84%
    10:00 +24°C° 0.6 mm 1 mps 725 mmHg 85%
    11:00 +24°C° 0.6 mm 2 mps 725 mmHg 86%
    12:00 +24°C° 0.6 mm 2 mps 724 mmHg 86%
    13:00 +23°C° 0.6 mm 2 mps 724 mmHg 89%
    14:00 +23°C° 0.6 mm 2 mps 724 mmHg 91%
    15:00 +21°C° 0.6 mm 2 mps 723 mmHg 93%
    16:00 +20°C° 0.5 mm 2 mps 724 mmHg 94%
    17:00 +19°C° 0.5 mm 2 mps 724 mmHg 94%
    18:00 +17°C° 0.5 mm 2 mps 725 mmHg 95%
    19:00 +18°C° 0.1 mm 1 mps 725 mmHg 95%
    20:00 +18°C° 0.1 mm 1 mps 726 mmHg 94%
    21:00 +18°C° 0.1 mm 1 mps 727 mmHg 94%
    22:00 +18°C° 0.1 mm 1 mps 727 mmHg 94%
    23:00 +16°C° 0.1 mm 1 mps 726 mmHg 94%

    21 January, Monday

    Time Temperature Precipitation Wind Pressure Humidity
    00:00 +16°C° 0.1 mm 1 mps 726 mmHg 95%
    01:00 +16°C° 0 mm 1 mps 726 mmHg 95%
    02:00 +16°C° 0 mm 1 mps 726 mmHg 95%
    03:00 +15°C° 0 mm 1 mps 725 mmHg 95%
    04:00 +15°C° 0 mm 1 mps 726 mmHg 95%
    05:00 +15°C° 0 mm 1 mps 726 mmHg 94%
    06:00 +15°C° 0 mm 1 mps 726 mmHg 94%
    07:00 +15°C° 0 mm 1 mps 726 mmHg 92%
    08:00 +16°C° 0 mm 1 mps 727 mmHg 90%
    09:00 +16°C° 0 mm 1 mps 727 mmHg 88%
    10:00 +18°C° 0 mm 1 mps 727 mmHg 80%
    11:00 +20°C° 0 mm 1 mps 726 mmHg 73%
    12:00 +21°C° 0 mm 1 mps 726 mmHg 66%
    13:00 +21°C° 0 mm 1 mps 725 mmHg 65%
    14:00 +21°C° 0 mm 1 mps 724 mmHg 64%
    15:00 +22°C° 0 mm 1 mps 723 mmHg 64%
    16:00 +20°C° 0 mm 1 mps 723 mmHg 71%
    17:00 +19°C° 0 mm 1 mps 723 mmHg 79%
    18:00 +16°C° 0 mm 0 mps 724 mmHg 87%
    19:00 +15°C° 0 mm 0 mps 724 mmHg 90%
    20:00 +14°C° 0 mm 0 mps 724 mmHg 93%
    21:00 +14°C° 0 mm 0 mps 725 mmHg 96%
    22:00 +14°C° 0 mm 0 mps 724 mmHg 96%
    23:00 +13°C° 0 mm 0 mps 724 mmHg 96%
    Show more